Location: Hall+in+Tirol
(47.2830°N, 11.5170°E)
Time: 12:21:41
(UTC+02:00)

Amateur Radio Satellites - All Passes

Search period start: 30 September 2014 11:51
Search period end: 01 October 2014 11:51
Location: Hall+in+Tirol, 47.2830°N, 11.5170°E

Satellite Date Start Highest point End Downlink Frequencies (MHz)
Time Altitude Azimuth
FUNcube-1 30 Sep 12:02:34 12:07:09 67° 287° (WNW) 12:11:35 145.950 - 145.970 MHz USB
UKube-1 30 Sep 12:10:35 12:13:59 23° 297° (WNW) 12:17:23 145.840 MHz, 145.915 MHz
Sapphire 30 Sep 12:15:20 12:20:00 29° 319° (NW) 12:24:42 437.095 MHz 1200 baud AX-25 AFSK
RS-15 30 Sep 12:24:16 12:35:16 71° 240° (WSW) 12:46:42 29.354 - 29.394 USB, Beacon 29.352 USB
Oscar 16 30 Sep 12:29:33 12:33:18 21° 59° (ENE) 12:37:03 437.025 USB, Beacon 2401.1428
JAS-1B 30 Sep 12:32:42 12:37:33 20° 57° (ENE) 12:41:58 435.800 - 435.900 CW/SSB
AO-27 30 Sep 12:38:27 12:40:10 12° 52° (NE) 12:41:53 436.795 MHz FM
PCSat 30 Sep 12:42:10 12:46:11 21° 326° (NW) 12:50:13 145.825 MHz
ZACube-1 30 Sep 12:48:06 12:51:54 26° 295° (WNW) 12:55:38 437.345 MHz
AO-Echo 30 Sep 12:49:41 12:52:00 14° 56° (ENE) 12:54:20 ?
Oscar 19 30 Sep 13:26:11 13:31:15 56° 70° (ENE) 13:36:20 437.125 CW, 437.150 USB
TMSAT-1 30 Sep 13:26:15 13:27:59 12° 52° (NE) 13:29:44 436.925 FM
AO-7 30 Sep 13:26:32 13:29:19 12° 32° (NNE) 13:32:05 29.400 - 29.500 MHz
HO-68 30 Sep 13:28:15 13:30:25 12° 320° (NW) 13:32:36 435.675 MHz FM
ITAMSAT 1 30 Sep 13:36:08 13:40:41 32° 64° (ENE) 13:45:16 435.822 SSB
Uribyol 2 30 Sep 13:37:10 13:41:49 35° 65° (ENE) 13:46:30 436.500 FM
MaSat-1 30 Sep 14:03:01 14:04:21 12° 37° (NE) 14:05:38 437.345 MHz
Sapphire 30 Sep 14:03:58 14:05:21 11° 344° (NNW) 14:06:44 437.095 MHz 1200 baud AX-25 AFSK
Oscar 16 30 Sep 14:07:00 14:12:10 66° 258° (WSW) 14:17:22 437.025 USB, Beacon 2401.1428
AO-27 30 Sep 14:13:35 14:18:43 66° 71° (ENE) 14:23:53 436.795 MHz FM
JAS-1B 30 Sep 14:20:03 14:27:40 87° 254° (WSW) 14:34:03 435.800 - 435.900 CW/SSB
AO-Echo 30 Sep 14:25:24 14:30:06 88° 255° (WSW) 14:34:52 ?
Gurwin Techsat 1B 30 Sep 14:32:31 14:37:36 49° 69° (ENE) 14:42:43 435.225 FM
RS-15 30 Sep 14:38:49 14:45:33 18° 262° (W) 14:52:29 29.354 - 29.394 USB, Beacon 29.352 USB
Saudisat 1A 30 Sep 14:57:53 15:02:08 51° 122° (ESE) 15:06:26 436.775 MHz
TMSAT-1 30 Sep 15:01:41 15:06:55 65° 71° (ENE) 15:12:11 436.925 FM
Oscar 19 30 Sep 15:06:57 15:10:56 22° 268° (W) 15:14:57 437.125 CW, 437.150 USB
AO-7 30 Sep 15:12:22 15:19:50 40° 56° (NE) 15:27:18 29.400 - 29.500 MHz
ITAMSAT 1 30 Sep 15:15:16 15:20:05 39° 263° (W) 15:24:58 435.822 SSB
Uribyol 2 30 Sep 15:16:31 15:21:16 36° 263° (W) 15:26:04 436.500 FM
MaSat-1 30 Sep 15:38:00 15:41:36 87° 242° (WSW) 15:44:39 437.345 MHz
Uosat F 30 Sep 15:46:15 15:50:38 32° 64° (ENE) 15:55:02 435.120 FM
AO-27 30 Sep 15:55:10 15:58:43 19° 270° (W) 16:02:18 436.795 MHz FM
AO-Echo 30 Sep 16:08:35 16:09:38 11° 274° (W) 16:10:41 ?
Gurwin Techsat 1B 30 Sep 16:13:27 16:17:49 26° 267° (W) 16:22:13 435.225 FM
JAS-1B 30 Sep 16:14:32 16:18:57 17° 270° (W) 16:23:02 435.800 - 435.900 CW/SSB
PCSat 30 Sep 16:16:08 16:18:02 12° 19° (NNE) 16:19:57 145.825 MHz
JAS-2 30 Sep 16:16:50 16:19:17 13° 51° (NE) 16:21:48 435.800 - 435.900 CW/SSB, 435.910 FM
KITSAT 1 30 Sep 16:21:02 16:26:00 18° 101° (E) 16:30:59 435.175 FM
Saudisat 1A 30 Sep 16:38:10 16:41:57 28° 322° (NW) 16:45:47 436.775 MHz
TMSAT-1 30 Sep 16:43:34 16:47:18 19° 270° (W) 16:51:05 436.925 FM
AO-7 30 Sep 17:04:12 17:12:20 59° 257° (WSW) 17:20:32 29.400 - 29.500 MHz
Hamsat 30 Sep 17:13:54 17:17:22 24° 65° (ENE) 17:20:49 145.90 MHz
Uosat F 30 Sep 17:24:43 17:29:20 37° 263° (W) 17:34:00 435.120 FM
OPAL 30 Sep 17:26:16 17:30:24 24° 95° (E) 17:34:28 ?
Sapphire 30 Sep 17:32:49 17:37:07 23° 37° (NE) 17:41:24 437.095 MHz 1200 baud AX-25 AFSK
JAS-2 30 Sep 17:58:14 18:03:24 79° 73° (ENE) 18:08:55 435.800 - 435.900 CW/SSB, 435.910 FM
PCSat 30 Sep 17:58:20 18:03:14 33° 43° (NE) 18:08:06 145.825 MHz
KITSAT 1 30 Sep 18:12:03 18:20:07 77° 121° (ESE) 18:28:12 435.175 FM
Saudisat 1A 30 Sep 18:22:47 18:23:01 10° 345° (NNW) 18:23:15 436.775 MHz
SO-67 30 Sep 18:28:31 18:30:49 17° 65° (ENE) 18:33:08 435.3500 MHz FM
HO-68 30 Sep 18:40:12 18:42:28 12° 40° (NE) 18:44:43 435.675 MHz FM
Hamsat 30 Sep 18:49:04 18:53:08 39° 263° (W) 18:57:11 145.90 MHz
OPAL 30 Sep 19:04:36 19:09:33 50° 294° (WNW) 19:14:24 ?
AO-7 30 Sep 19:04:38 19:06:58 11° 278° (W) 19:09:18 29.400 - 29.500 MHz
Sapphire 30 Sep 19:15:46 19:21:15 85° 238° (WSW) 19:26:41 437.095 MHz 1200 baud AX-25 AFSK
PCSat 30 Sep 19:41:38 19:46:54 52° 244° (WSW) 19:52:07 145.825 MHz
SO-50 30 Sep 19:43:17 19:47:15 32° 117° (ESE) 19:51:19 436.795 FM
JAS-2 30 Sep 19:46:37 19:49:23 14° 274° (W) 19:52:15 435.800 - 435.900 CW/SSB, 435.910 FM
SO-67 30 Sep 20:00:25 20:03:36 35° 263° (W) 20:06:49 435.3500 MHz FM
STRAND 1 30 Sep 20:04:32 20:09:41 65° 102° (ESE) 20:14:47 ?
KITSAT 1 30 Sep 20:08:56 20:16:17 36° 325° (NW) 20:23:39 435.175 FM
HO-68 30 Sep 20:21:44 20:28:26 46° 62° (ENE) 20:35:10 435.675 MHz FM
Sapphire 30 Sep 21:01:07 21:03:50 14° 257° (WSW) 21:06:33 437.095 MHz 1200 baud AX-25 AFSK
Oscar 11 30 Sep 21:04:22 21:07:50 24° 64° (ENE) 21:11:19 145.825 FM, Beacon 2401.500 USB
AO-40 30 Sep 21:08:30 02:50:57 36° 167° (SSE) 04:42:59 Beacon 2401.320
SO-50 30 Sep 21:23:25 21:27:43 41° 317° (NW) 21:32:08 436.795 FM
FUNcube-1 30 Sep 21:26:56 21:30:09 19° 61° (ENE) 21:33:25 145.950 - 145.970 MHz USB
UKube-1 30 Sep 21:32:11 21:36:25 56° 71° (ENE) 21:40:42 145.840 MHz, 145.915 MHz
Saudisat 1A 30 Sep 21:42:36 21:46:01 21° 34° (NE) 21:49:24 436.775 MHz
STRAND 1 30 Sep 21:44:39 21:48:24 21° 301° (WNW) 21:52:09 ?
UOSAT-12 30 Sep 21:54:35 21:59:06 54° 122° (ESE) 22:03:42 437.025 FM, 437.400 FM
KITSAT 1 30 Sep 22:08:39 22:14:24 20° 354° (N) 22:20:09 435.175 FM
HO-68 30 Sep 22:09:30 22:16:11 42° 262° (W) 22:22:56 435.675 MHz FM
ZACube-1 30 Sep 22:10:32 22:14:54 47° 70° (ENE) 22:19:20 437.345 MHz
Oscar 11 30 Sep 22:39:42 22:43:49 40° 262° (W) 22:47:58 145.825 FM, Beacon 2401.500 USB
ISS 30 Sep 22:55:19 22:58:09 26° 141° (SE) 23:01:00 145.800 FM
FUNcube-1 30 Sep 23:01:39 23:06:07 57° 260° (W) 23:10:42 145.950 - 145.970 MHz USB
SO-50 30 Sep 23:07:17 23:09:33 13° 340° (NNW) 23:11:49 436.795 FM
UKube-1 30 Sep 23:10:16 23:12:59 16° 269° (W) 23:15:44 145.840 MHz, 145.915 MHz
Saudisat 1A 30 Sep 23:21:40 23:26:07 79° 234° (SW) 23:30:31 436.775 MHz
UOSAT-12 30 Sep 23:35:25 23:39:31 29° 322° (NW) 23:43:41 437.025 FM, 437.400 FM
ZACube-1 30 Sep 23:48:02 23:51:32 22° 268° (W) 23:55:06 437.345 MHz
KITSAT 1 01 Oct 00:06:24 00:12:59 26° 24° (NNE) 00:19:33 435.175 FM
ISS 01 Oct 00:31:20 00:34:39 67° 339° (NNW) 00:37:59 145.800 FM
RS-15 01 Oct 00:48:31 00:51:59 12° 93° (E) 00:55:26 29.354 - 29.394 USB, Beacon 29.352 USB
Saudisat 1A 01 Oct 01:04:12 01:04:55 10° 252° (WSW) 01:05:37 436.775 MHz
Oscar 10/S400 01 Oct 01:04:57 02:03:21 34° 222° (SW) 06:34:10 145.825 - 145.975 CW/USB, Beacon 145.810 USB
UOSAT-12 01 Oct 01:19:41 01:21:13 11° 345° (NNW) 01:22:46 437.025 FM, 437.400 FM
Oscar 19 01 Oct 01:36:01 01:38:57 15° 88° (E) 01:41:53 437.125 CW, 437.150 USB
KITSAT 1 01 Oct 02:01:59 02:10:03 66° 49° (NE) 02:18:04 435.175 FM
JAS-1B 01 Oct 02:02:13 02:05:50 17° 90° (E) 02:09:33 435.800 - 435.900 CW/SSB
ISS 01 Oct 02:08:33 02:11:41 37° 359° (N) 02:14:49 145.800 FM
Oscar 16 01 Oct 02:15:45 02:20:28 34° 96° (E) 02:25:07 437.025 USB, Beacon 2401.1428
AO-27 01 Oct 02:24:24 02:28:00 19° 90° (E) 02:31:36 436.795 MHz FM
AO-Echo 01 Oct 02:29:29 02:33:33 24° 93° (E) 02:37:40 ?
SO-50 01 Oct 02:31:22 02:34:45 19° 29° (NNE) 02:38:09 436.795 FM
Gurwin Techsat 1B 01 Oct 02:46:48 02:49:50 15° 88° (E) 02:52:51 435.225 FM
RS-15 01 Oct 02:51:01 03:01:38 57° 116° (ESE) 03:12:10 29.354 - 29.394 USB, Beacon 29.352 USB
UOSAT-12 01 Oct 03:02:44 03:03:34 10° 11° (N) 03:04:25 437.025 FM, 437.400 FM
OPAL 01 Oct 03:09:08 03:10:56 12° 49° (NE) 03:12:44 ?
Oscar 19 01 Oct 03:13:45 03:18:56 78° 286° (WNW) 03:24:03 437.125 CW, 437.150 USB
TMSAT-1 01 Oct 03:15:08 03:19:02 20° 91° (E) 03:22:53 436.925 FM
ITAMSAT 1 01 Oct 03:24:24 03:29:35 59° 101° (ESE) 03:34:44 435.822 SSB
Uribyol 2 01 Oct 03:25:24 03:30:37 64° 102° (ESE) 03:35:48 436.500 FM
ISS 01 Oct 03:45:26 03:48:45 61° 19° (NNE) 03:52:03 145.800 FM
JAS-1B 01 Oct 03:51:32 03:57:12 73° 288° (WNW) 04:03:10 435.800 - 435.900 CW/SSB
Oscar 16 01 Oct 03:55:08 03:59:49 35° 295° (WNW) 04:04:27 437.025 USB, Beacon 2401.1428
KITSAT 1 01 Oct 03:57:55 04:05:00 35° 251° (WSW) 04:12:04 435.175 FM
AO-27 01 Oct 04:02:48 04:08:00 67° 288° (WNW) 04:13:11 436.795 MHz FM
AO-Echo 01 Oct 04:07:45 04:12:32 49° 290° (WNW) 04:17:27 ?
SO-50 01 Oct 04:11:19 04:16:08 73° 50° (NE) 04:20:59 436.795 FM
Gurwin Techsat 1B 01 Oct 04:25:07 04:30:28 82° 286° (WNW) 04:35:47 435.225 FM
UOSAT-12 01 Oct 04:41:35 04:45:27 24° 34° (NE) 04:49:16 437.025 FM, 437.400 FM
OPAL 01 Oct 04:43:41 04:48:50 63° 69° (ENE) 04:54:00 ?
TMSAT-1 01 Oct 04:54:08 04:59:23 62° 289° (WNW) 05:04:37 436.925 FM
Oscar 19 01 Oct 04:55:01 04:57:26 13° 306° (NW) 04:59:50 437.125 CW, 437.150 USB
AO-7 01 Oct 05:02:01 05:09:46 41° 98° (E) 05:17:28 29.400 - 29.500 MHz
RS-15 01 Oct 05:03:29 05:14:09 55° 321° (NW) 05:24:55 29.354 - 29.394 USB, Beacon 29.352 USB
ITAMSAT 1 01 Oct 05:04:40 05:08:41 23° 300° (WNW) 05:12:42 435.822 SSB
Uribyol 2 01 Oct 05:05:45 05:09:38 22° 301° (WNW) 05:13:31 436.500 FM
JAS-2 01 Oct 05:06:34 05:07:09 10° 83° (E) 05:07:45 435.800 - 435.900 CW/SSB, 435.910 FM
ISS 01 Oct 05:22:21 05:25:18 30° 218° (SW) 05:28:15 145.800 FM
MaSat-1 01 Oct 05:24:45 05:28:20 21° 106° (ESE) 05:31:47 437.345 MHz
Uosat F 01 Oct 05:28:40 05:33:37 52° 100° (E) 05:38:31 435.120 FM
JAS-1B 01 Oct 05:44:33 05:46:57 13° 309° (NW) 05:49:22 435.800 - 435.900 CW/SSB
AO-27 01 Oct 05:44:43 05:46:34 12° 308° (NW) 05:48:24 436.795 MHz FM
STRAND 1 01 Oct 05:46:28 05:50:07 20° 59° (ENE) 05:53:47 ?
SO-50 01 Oct 05:52:56 05:56:12 18° 249° (WSW) 05:59:30 436.795 FM
Gurwin Techsat 1B 01 Oct 06:06:50 06:09:38 15° 305° (NW) 06:12:25 435.225 FM
UOSAT-12 01 Oct 06:21:22 06:26:06 75° 235° (SW) 06:30:46 437.025 FM, 437.400 FM
OPAL 01 Oct 06:24:19 06:28:07 20° 267° (W) 06:31:57 ?
Hamsat 01 Oct 06:31:40 06:35:21 29° 95° (E) 06:38:59 145.90 MHz
TMSAT-1 01 Oct 06:36:46 06:38:17 11° 308° (NW) 06:39:48 436.925 FM
JAS-2 01 Oct 06:46:51 06:53:20 58° 101° (E) 07:00:33 435.800 - 435.900 CW/SSB, 435.910 FM
AO-7 01 Oct 06:54:48 07:02:45 54° 299° (WNW) 07:10:43 29.400 - 29.500 MHz
MaSat-1 01 Oct 06:59:45 07:04:31 58° 303° (WNW) 07:09:00 437.345 MHz
Uosat F 01 Oct 07:08:06 07:12:05 24° 299° (WNW) 07:16:05 435.120 FM
RS-15 01 Oct 07:20:05 07:29:33 32° 354° (N) 07:39:10 29.354 - 29.394 USB, Beacon 29.352 USB
SO-67 01 Oct 07:21:58 07:23:33 13° 90° (E) 07:25:07 435.3500 MHz FM
STRAND 1 01 Oct 07:23:47 07:28:50 66° 258° (WSW) 07:33:57 ?
UOSAT-12 01 Oct 08:04:27 08:05:24 11° 253° (WSW) 08:06:21 437.025 FM, 437.400 FM
Hamsat 01 Oct 08:07:37 08:11:17 29° 293° (WNW) 08:14:55 145.90 MHz
JAS-2 01 Oct 08:32:30 08:38:09 33° 297° (WNW) 08:44:21 435.800 - 435.900 CW/SSB, 435.910 FM
MaSat-1 01 Oct 08:39:57 08:41:51 12° 321° (NW) 08:43:42 437.345 MHz
PCSat 01 Oct 08:46:43 08:48:51 12° 102° (ESE) 08:51:00 145.825 MHz
AO-7 01 Oct 08:49:15 08:53:46 16° 322° (NW) 08:58:17 29.400 - 29.500 MHz
SO-67 01 Oct 08:53:30 08:56:50 46° 287° (WNW) 09:00:09 435.3500 MHz FM
HO-68 01 Oct 09:33:16 09:39:41 34° 95° (E) 09:46:04 435.675 MHz FM
RS-15 01 Oct 09:35:20 09:45:37 42° 28° (NNE) 09:56:10 29.354 - 29.394 USB, Beacon 29.352 USB
Sapphire 01 Oct 10:00:39 10:05:48 47° 115° (ESE) 10:10:59 437.095 MHz 1200 baud AX-25 AFSK
Oscar 11 01 Oct 10:24:13 10:28:00 29° 95° (E) 10:31:45 145.825 FM, Beacon 2401.500 USB
PCSat 01 Oct 10:25:57 10:31:21 78° 121° (ESE) 10:36:48 145.825 MHz
FUNcube-1 01 Oct 10:48:16 10:51:57 24° 92° (E) 10:55:33 145.950 - 145.970 MHz USB
UKube-1 01 Oct 10:53:13 10:57:36 68° 103° (ESE) 11:01:56 145.840 MHz, 145.915 MHz
HO-68 01 Oct 11:20:42 11:27:41 56° 295° (WNW) 11:34:39 435.675 MHz FM
ZACube-1 01 Oct 11:32:53 11:37:28 64° 101° (E) 11:41:54 437.345 MHz
